Location: Tauranga
(37.6860°S, 176.1670°E)
Time: 22:46:23
(UTC+13:00)

COSMOS 2428 - Pass Details

Date: 24 January 2019
Orbit: 845 x 856 km, 71.0° (Epoch: 18 February)

Event Time Altitude Azimuth Distance (km) Brightness Sun altitude
Exits shadow 23:03:04 48° 80° (E) 1,118 3.0 -23.7°
Drops below altitude 10° 23:08:23 10° 146° (SE) 2,513 5.4 -24.4°
Sets 23:10:56 0° 151° (SSE) 3,457 6.2 -24.7°
